Date String (YYYY-MM-DD hh:mm:ss) UTC,Instrument flags,Ambient pressure (hPa),Sample flow (lpm),Bypass flow (lpm),Sample temperature (°C),Ambient temperature (°C),ASC tube jacket temperature (°C),LED temperature (°C),Box temperature (°C),Sample RH (%),Span deviation,Mass concentration (μg/m³),Mass concentration (μg/m³),Mass concentration (μg/m³)
DateTimeUTC,F1_M11,P_M11,Q1_M11,Q2_M11,T1_M11,T2_M11,T3_M11,T4_M11,T5_M11,U1_M11,ZSPAN_M11,X0_M11,X2_M11,X1_M11
2023-05-26 10:00:00,,0830.0,5.00,0.00,28.5,26.8,00.0,36.9,30.1,23.0,0000.0,0007.40,0003.80,0003.25
2023-05-26 10:01:00,,0830.0,4.99,0.00,28.5,26.8,00.0,36.9,30.1,22.9,0000.0,0007.40,0003.80,0003.26
2023-05-26 10:02:00,,0830.0,4.99,0.00,28.5,26.7,00.0,36.9,30.1,22.8,0000.0,0007.54,0003.83,0003.27
2023-05-26 10:03:00,,0830.0,5.01,0.00,28.5,26.7,00.0,36.9,30.1,22.7,0000.0,0007.91,0003.86,0003.28
2023-05-26 10:04:00,,0830.0,5.01,0.00,28.5,26.7,00.0,36.9,30.1,22.7,0000.0,0007.93,0003.87,0003.29
2023-05-26 10:05:00,,0830.0,5.00,0.00,28.5,26.7,00.0,36.9,30.0,22.7,0000.0,0007.85,0003.87,0003.29
2023-05-26 10:06:00,,0830.0,4.99,0.00,28.5,26.6,00.0,36.9,30.0,22.8,0000.0,0007.73,0003.86,0003.29
2023-05-26 10:07:00,,0830.0,5.00,0.00,28.4,26.6,00.0,36.9,30.0,23.4,0000.0,0007.32,0003.86,0003.31
2023-05-26 10:08:00,,0829.9,4.99,0.00,28.4,26.6,00.0,36.9,30.0,23.1,0000.0,0007.18,0003.85,0003.33
2023-05-26 10:09:00,,0829.9,5.00,0.00,28.4,26.5,00.0,36.8,30.0,22.9,0000.0,0007.03,0003.79,0003.31
2023-05-26 10:10:00,,0829.8,5.00,0.00,28.4,26.5,00.0,36.8,30.0,22.9,0000.0,0006.91,0003.78,0003.31
2023-05-26 10:11:00,,0829.8,5.00,0.00,28.4,26.5,00.0,36.8,30.0,23.0,0000.0,0006.87,0003.78,0003.32
2023-05-26 10:12:00,,0829.8,5.00,0.00,28.4,26.5,00.0,36.8,30.0,23.1,0000.0,0006.96,0003.79,0003.32
2023-05-26 10:13:00,,0829.8,5.02,0.00,28.4,26.5,00.0,36.8,30.0,23.1,0000.0,0006.85,0003.78,0003.32
2023-05-26 10:14:00,,0829.8,4.98,0.00,28.4,26.5,00.0,36.8,30.0,23.3,0000.0,0006.45,0003.79,0003.33
2023-05-26 10:15:00,,0829.8,4.99,0.00,28.4,26.5,00.0,36.8,30.0,23.4,0000.0,0006.55,0003.80,0003.33
2023-05-26 10:16:00,,0829.8,5.01,0.00,28.3,26.5,00.0,36.8,30.0,23.9,0000.0,0006.68,0003.84,0003.35
2023-05-26 10:17:00,,0829.8,5.01,0.00,28.3,26.5,00.0,36.8,29.9,23.6,0000.0,0007.28,0003.88,0003.36
2023-05-26 10:18:00,,0829.8,5.01,0.00,28.3,26.5,00.0,36.8,29.9,23.8,0000.0,0007.49,0003.86,0003.36
2023-05-26 10:19:00,,0829.7,4.99,0.00,28.3,26.5,00.0,36.8,29.9,23.6,0000.0,0007.49,0003.87,0003.36
2023-05-26 10:20:00,,0829.7,4.99,0.00,28.3,26.6,00.0,36.7,29.9,23.7,0000.0,0007.60,0003.89,0003.36
2023-05-26 10:21:00,,0829.7,5.00,0.00,28.3,26.6,00.0,36.7,29.9,24.1,0000.0,0008.34,0003.94,0003.38
2023-05-26 10:22:00,,0829.7,5.00,0.00,28.3,26.6,00.0,36.7,29.9,25.0,0000.0,0008.63,0003.98,0003.40
2023-05-26 10:23:00,,0829.7,5.02,0.00,28.3,26.6,00.0,36.7,29.9,25.3,0000.0,0008.68,0004.02,0003.45
2023-05-26 10:24:00,,0829.7,5.01,0.00,28.3,26.6,00.0,36.7,29.9,25.5,0000.0,0008.78,0004.09,0003.50
2023-05-26 10:25:00,,0829.7,4.99,0.00,28.3,26.6,00.0,36.7,29.9,26.2,0000.0,0008.80,0004.12,0003.55
2023-05-26 10:26:00,,0829.7,4.99,0.00,28.3,26.6,00.0,36.7,29.9,26.0,0000.0,0009.13,0004.17,0003.61
2023-05-26 10:27:00,,0829.6,5.00,0.00,28.3,26.6,00.0,36.7,29.9,25.2,0000.0,0009.11,0004.17,0003.65
2023-05-26 10:28:00,,0829.7,5.01,0.00,28.3,26.6,00.0,36.7,29.9,24.5,0000.0,0009.11,0004.18,0003.66
2023-05-26 10:29:00,,0829.7,5.01,0.00,28.3,26.6,00.0,36.7,29.9,24.4,0000.0,0009.97,0004.20,0003.67
2023-05-26 10:30:00,,0829.6,5.00,0.00,28.3,26.6,00.0,36.7,29.9,24.6,0000.0,0010.11,0004.20,0003.67
2023-05-26 10:31:00,,0829.6,4.99,0.00,28.3,26.6,00.0,36.7,29.9,24.9,0000.0,0010.07,0004.21,0003.69
2023-05-26 10:32:00,,0829.6,5.00,0.00,28.3,26.6,00.0,36.7,29.9,24.4,0000.0,0009.38,0004.18,0003.68
2023-05-26 10:33:00,,0829.6,5.01,0.00,28.3,26.5,00.0,36.7,29.9,24.1,0000.0,0009.09,0004.15,0003.66
2023-05-26 10:34:00,,0829.6,5.01,0.00,28.3,26.5,00.0,36.7,29.9,24.0,0000.0,0009.10,0004.15,0003.62
2023-05-26 10:35:00,,0829.6,4.98,0.00,28.3,26.5,00.0,36.7,29.9,23.9,0001.9,0008.96,0004.06,0003.57
2023-05-26 10:36:00,,0829.6,5.00,0.00,28.3,26.5,00.0,36.7,29.9,23.8,0003.4,0008.71,0003.98,0003.52
2023-05-26 10:37:00,,0829.7,5.02,0.00,28.2,26.5,00.0,36.7,29.9,23.9,0000.8,0008.27,0003.90,0003.45
2023-05-26 10:38:00,,0829.7,5.01,0.00,28.2,26.5,00.0,36.7,29.8,23.7,0000.0,0008.26,0003.86,0003.40
2023-05-26 10:39:00,,0829.7,5.00,0.00,28.2,26.5,00.0,36.7,29.8,23.5,0000.0,0008.16,0003.87,0003.38
2023-05-26 10:40:00,,0829.6,4.99,0.00,28.2,26.4,00.0,36.6,29.8,23.5,0000.0,0007.15,0003.90,0003.37
2023-05-26 10:41:00,,0829.6,5.00,0.00,28.2,26.4,00.0,36.6,29.8,23.5,0000.0,0007.40,0003.90,0003.37
2023-05-26 10:42:00,,0829.7,4.99,0.00,28.2,26.4,00.0,36.6,29.8,23.5,0000.0,0007.45,0003.87,0003.35
2023-05-26 10:43:00,,0829.7,5.01,0.00,28.2,26.4,00.0,36.6,29.8,23.6,0000.0,0007.62,0003.89,0003.35
2023-05-26 10:44:00,,0829.7,5.00,0.00,28.2,26.4,00.0,36.6,29.8,23.7,0000.0,0007.62,0003.87,0003.34
2023-05-26 10:45:00,,0829.6,5.01,0.00,28.2,26.4,00.0,36.6,29.8,23.6,0000.0,0007.62,0003.84,0003.34
2023-05-26 10:46:00,,0829.7,5.01,0.00,28.2,26.3,00.0,36.6,29.8,23.5,0000.0,0008.30,0003.89,0003.33
2023-05-26 10:47:00,,0829.7,5.00,0.00,28.1,26.3,00.0,36.6,29.7,23.5,0000.0,0008.56,0003.92,0003.33
2023-05-26 10:48:00,,0829.7,4.99,0.00,28.1,26.3,00.0,36.6,29.7,23.4,0000.0,0008.58,0003.91,0003.32
2023-05-26 10:49:00,,0829.7,4.99,0.00,28.1,26.3,00.0,36.6,29.7,23.5,0000.0,0008.60,0003.90,0003.31
2023-05-26 10:50:00,,0829.7,5.00,0.00,28.1,26.3,00.0,36.6,29.7,23.4,0000.0,0008.42,0003.85,0003.31
2023-05-26 10:51:00,,0829.7,5.00,0.00,28.1,26.3,00.0,36.5,29.7,23.3,0000.0,0008.28,0003.81,0003.30
2023-05-26 10:52:00,,0829.7,5.00,0.00,28.1,26.3,00.0,36.5,29.7,23.2,0000.0,0007.96,0003.79,0003.28
2023-05-26 10:53:00,,0829.7,5.01,0.00,28.1,26.3,00.0,36.5,29.7,23.2,0000.0,0007.95,0003.79,0003.27
2023-05-26 10:54:00,,0829.7,5.00,0.00,28.1,26.3,00.0,36.5,29.7,23.3,0000.0,0007.80,0003.77,0003.25
2023-05-26 10:55:00,,0829.7,5.00,0.00,28.1,26.3,00.0,36.5,29.7,23.3,0000.0,0007.68,0003.73,0003.24
2023-05-26 10:56:00,,0829.7,4.99,0.00,28.1,26.3,00.0,36.5,29.7,23.3,0000.0,0007.66,0003.68,0003.22
2023-05-26 10:57:00,,0829.6,5.00,0.00,28.1,26.3,00.0,36.5,29.7,23.4,0000.0,0007.58,0003.66,0003.21
2023-05-26 10:58:00,,0829.6,5.00,0.00,28.1,26.3,00.0,36.5,29.7,23.4,0000.0,0007.47,0003.66,0003.22
2023-05-26 10:59:00,,0829.6,5.01,0.00,28.1,26.3,00.0,36.5,29.7,23.4,0000.0,0007.56,0003.67,0003.21
